Location: Kawakawa
(35.3830°S, 174.0670°E)
Time: 01:31:57
(UTC+13:00)

Explorer 7 - Pass Details

Date: 16 December 2019
Orbit: 485 x 679 km, 50.3° (Epoch: 20 January)

Event Time Altitude Azimuth Distance (km) Brightness Sun altitude
Rises 01:40:10 0° 342° (NNW) 2,725 - -31.1°
Reaches altitude 10° 01:42:48 10° 357° (N) 1,801 - -31.1°
Maximum altitude 01:46:01 23° 49° (NE) 1,168 - -31.0°
Drops below altitude 10° 01:49:08 10° 101° (E) 1,742 - -30.9°
Exits shadow 01:50:06 - 108° (ESE) 2,060 10.0 -30.9°
Sets 01:51:37 0° 116° (ESE) 2,610 10.7 -30.8°
